Regional Weather Roundup
Issued by NWS

Home | Current Version | Previous Version | Text Only | Print | Product List | Glossary On
Versions: 1 2 3 4 5 6 7 8 9 10 11 12 13 14 15 16 17 18 19 20 21 22 23 24 25 26 27 28 29 30 31 32 33 34 35 36 37 38 39 40 41 42 43 44 45 46 47 48 49 50
000
ASUS44 KMEG 050410
RWRTN
TENNESSEE HOURLY STATE WEATHER ROUNDUP
NATIONAL WEATHER SERVICE MEMPHIS TN
1100 PM CDT FRI SEP 04 2015

TNZ002-004-019-021-049-052-054-088>092-050500-
WEST TENNESSEE

CITY           SKY/WX    TMP DP  RH WIND       PRES   REMARKS
MEMPHIS INTL   PTCLDY    80  71  74 CALM      30.02R
NWS MEMPHIS      N/A     79 N/A N/A MISG        N/A
JACKSON        CLEAR     73  71  93 CALM      30.03S
DYERSBURG      CLEAR     77  72  83 E6        30.04R
UNION CITY     CLEAR     72  72 100 CALM      30.03R
PARIS          CLEAR     72  68  88 CALM      30.06R
LEXINGTON      CLEAR     72  70  94 CALM      30.04S
$$

TNZ008-025-027-028-033-062-065-066-050500-
NORTH MIDDLE TENNESSEE

CITY           SKY/WX    TMP DP  RH WIND       PRES   REMARKS
NASHVILLE      CLEAR     77  67  71 CALM      30.06R
CLARKSVILLE    CLEAR     74  67  78 CALM      30.05S
SMYRNA         CLEAR    N/A N/A N/A CALM      30.06S
COOKEVILLE     CLEAR     68  66  94 CALM      30.07F
CROSSVILLE     CLEAR     72  66  81 CALM      30.13F
$$

TNZ061-075-076-078-094-096-097-050500-
SOUTH MIDDLE TENNESSEE

CITY           SKY/WX    TMP DP  RH WIND       PRES   REMARKS
FAYETTEVILLE   CLEAR     73  70  88 CALM      30.06S
TULLAHOMA      CLEAR     72  66  83 CALM      30.09R
WINCHESTER     CLEAR     70  68  94 CALM      30.07S
MCMINNVILLE    CLEAR     72  72 100 CALM      30.08S
COLUMBIA       CLEAR     73  73 100 CALM      30.05S
SHELBYVILLE    CLEAR     73  72  94 CALM      30.07S
$$

TNZ017-018-042-046-047-050500-
NORTHEAST TENNESSEE

CITY           SKY/WX    TMP DP  RH WIND       PRES   REMARKS
TRI CITIES     PTCLDY    71  65  81 CALM      30.11F
ELIZABETHTON   CLEAR     68  61  77 SE3       30.13F
$$

TNZ012-013-036-069-073-074-050500-
CENTRAL EAST TENNESSEE

CITY           SKY/WX    TMP DP  RH WIND       PRES   REMARKS
KNOXVILLE      PTCLDY    77  67  71 CALM      30.05S
OAK RIDGE      CLEAR     74  69  85 CALM      30.08S
GATLINBURG     CLEAR     72  64  78 CALM      30.06S
MORRISTOWN     CLEAR     75  66  73 E5        30.10S
$$

TNZ083-085-099-050500-
SOUTHEAST TENNESSEE

CITY           SKY/WX    TMP DP  RH WIND       PRES   REMARKS
CHATTANOOGA    PTCLDY    76  70  82 CALM      30.04S
$$

SKY/WX REPORTED AS FAIR MEANS FEW OR NO CLOUDS BELOW
12 THOUSAND FEET.



USA.gov is the U.S. government's official web portal to all federal, state and local government web resources and services.